owner,sensor,date,latitude,longitude,sea_water_turbidity,qcFlag 
SCCF RECON,ioos:station:SCCF:13:1,2019-07-02T14:00:00Z,26.5255,-82.0032,1.56,11113222 
SCCF RECON,ioos:station:SCCF:13:1,2019-07-02T17:00:00Z,26.5255,-82.0032,1.51,11113222 
SCCF RECON,ioos:station:SCCF:13:1,2019-07-02T18:00:00Z,26.5255,-82.0032,1.14,11113222 
SCCF RECON,ioos:station:SCCF:13:1,2019-07-02T19:00:00Z,26.5255,-82.0032,1.1,11113222 
SCCF RECON,ioos:station:SCCF:13:1,2019-07-02T20:00:00Z,26.5255,-82.0032,1.03,11113222 
SCCF RECON,ioos:station:SCCF:13:1,2019-07-02T21:00:00Z,26.5255,-82.0032,0.97,11113222 
SCCF RECON,ioos:station:SCCF:13:1,2019-07-02T22:00:00Z,26.5255,-82.0032,1.08,11113222 
SCCF RECON,ioos:station:SCCF:13:1,2019-07-02T23:00:00Z,26.5255,-82.0032,1.3,11113222 
SCCF RECON,ioos:station:SCCF:13:1,2019-07-03T04:00:00Z,26.5255,-82.0032,0.99,11113222 
SCCF RECON,ioos:station:SCCF:13:1,2019-07-03T05:00:00Z,26.5255,-82.0032,1.0,11113222 
SCCF RECON,ioos:station:SCCF:13:1,2019-07-03T06:00:00Z,26.5255,-82.0032,1.14,11113222 
SCCF RECON,ioos:station:SCCF:13:1,2019-07-03T07:00:00Z,26.5255,-82.0032,1.5,11113222 
SCCF RECON,ioos:station:SCCF:13:1,2019-07-03T08:00:00Z,26.5255,-82.0032,1.6,11113222 
SCCF RECON,ioos:station:SCCF:13:1,2019-07-03T09:00:00Z,26.5255,-82.0032,1.26,11113222 
SCCF RECON,ioos:station:SCCF:13:1,2019-07-03T10:00:00Z,26.5255,-82.0032,0.99,11113222 
SCCF RECON,ioos:station:SCCF:13:1,2019-07-03T11:00:00Z,26.5255,-82.0032,0.92,11113222 
SCCF RECON,ioos:station:SCCF:13:1,2019-07-03T12:00:00Z,26.5255,-82.0032,0.95,11113222 
SCCF RECON,ioos:station:SCCF:13:1,2019-07-03T13:00:00Z,26.5255,-82.0032,0.98,11113222 
SCCF RECON,ioos:station:SCCF:13:1,2019-07-03T14:00:00Z,26.5255,-82.0032,0.8,11113222 
SCCF RECON,ioos:station:SCCF:13:1,2019-07-03T15:00:00Z,26.5255,-82.0032,1.23,11113222 
SCCF RECON,ioos:station:SCCF:13:1,2019-07-03T16:00:00Z,26.5255,-82.0032,1.29,11113222 
SCCF RECON,ioos:station:SCCF:13:1,2019-07-03T17:00:00Z,26.5255,-82.0032,1.75,11113222 
SCCF RECON,ioos:station:SCCF:13:1,2019-07-03T18:00:00Z,26.5255,-82.0032,1.61,11113222 
SCCF RECON,ioos:station:SCCF:13:1,2019-07-03T19:00:00Z,26.5255,-82.0032,1.29,11113222 
SCCF RECON,ioos:station:SCCF:13:1,2019-07-03T20:00:00Z,26.5255,-82.0032,1.16,11113222 
SCCF RECON,ioos:station:SCCF:13:1,2019-07-03T21:00:00Z,26.5255,-82.0032,1.16,11113222 
SCCF RECON,ioos:station:SCCF:13:1,2019-07-03T22:00:00Z,26.5255,-82.0032,1.07,11113222 
SCCF RECON,ioos:station:SCCF:13:1,2019-07-03T23:00:00Z,26.5255,-82.0032,1.32,11113222 
SCCF RECON,ioos:station:SCCF:13:1,2019-07-04T04:00:00Z,26.5255,-82.0032,1.02,11113222 
SCCF RECON,ioos:station:SCCF:13:1,2019-07-04T05:00:00Z,26.5255,-82.0032,1.04,11113222 
SCCF RECON,ioos:station:SCCF:13:1,2019-07-04T06:00:00Z,26.5255,-82.0032,1.23,11113222 
SCCF RECON,ioos:station:SCCF:13:1,2019-07-04T07:00:00Z,26.5255,-82.0032,1.38,11113222 
SCCF RECON,ioos:station:SCCF:13:1,2019-07-04T08:00:00Z,26.5255,-82.0032,1.49,11113222 
SCCF RECON,ioos:station:SCCF:13:1,2019-07-04T09:00:00Z,26.5255,-82.0032,1.59,11113222 
SCCF RECON,ioos:station:SCCF:13:1,2019-07-04T10:00:00Z,26.5255,-82.0032,1.49,11113222 
SCCF RECON,ioos:station:SCCF:13:1,2019-07-04T11:00:00Z,26.5255,-82.0032,1.29,11113222 
SCCF RECON,ioos:station:SCCF:13:1,2019-07-04T12:00:00Z,26.5255,-82.0032,0.97,11113222 
SCCF RECON,ioos:station:SCCF:13:1,2019-07-04T13:00:00Z,26.5255,-82.0032,0.99,11113222 
SCCF RECON,ioos:station:SCCF:13:1,2019-07-04T14:00:00Z,26.5255,-82.0032,0.88,11113222 
SCCF RECON,ioos:station:SCCF:13:1,2019-07-04T15:00:00Z,26.5255,-82.0032,1.06,11113222 
SCCF RECON,ioos:station:SCCF:13:1,2019-07-04T16:00:00Z,26.5255,-82.0032,1.45,11113222 
SCCF RECON,ioos:station:SCCF:13:1,2019-07-04T17:00:00Z,26.5255,-82.0032,1.72,11113222 
SCCF RECON,ioos:station:SCCF:13:1,2019-07-04T18:00:00Z,26.5255,-82.0032,1.59,11113222 
SCCF RECON,ioos:station:SCCF:13:1,2019-07-04T19:00:00Z,26.5255,-82.0032,1.39,11113222 
SCCF RECON,ioos:station:SCCF:13:1,2019-07-04T20:00:00Z,26.5255,-82.0032,1.22,11113222 
SCCF RECON,ioos:station:SCCF:13:1,2019-07-04T21:00:00Z,26.5255,-82.0032,1.17,11113222 
SCCF RECON,ioos:station:SCCF:13:1,2019-07-04T22:00:00Z,26.5255,-82.0032,1.0,11113222 
SCCF RECON,ioos:station:SCCF:13:1,2019-07-04T23:00:00Z,26.5255,-82.0032,1.0,11113222 
SCCF RECON,ioos:station:SCCF:13:1,2019-07-05T04:00:00Z,26.5255,-82.0032,1.28,11113222 
SCCF RECON,ioos:station:SCCF:13:1,2019-07-05T05:00:00Z,26.5255,-82.0032,0.99,11113222 
SCCF RECON,ioos:station:SCCF:13:1,2019-07-05T06:00:00Z,26.5255,-82.0032,0.97,11113222 
SCCF RECON,ioos:station:SCCF:13:1,2019-07-05T07:00:00Z,26.5255,-82.0032,1.2,11113222 
SCCF RECON,ioos:station:SCCF:13:1,2019-07-05T08:00:00Z,26.5255,-82.0032,1.44,11113222 
SCCF RECON,ioos:station:SCCF:13:1,2019-07-05T09:00:00Z,26.5255,-82.0032,1.51,11113222 
SCCF RECON,ioos:station:SCCF:13:1,2019-07-05T10:00:00Z,26.5255,-82.0032,1.49,11113222 
SCCF RECON,ioos:station:SCCF:13:1,2019-07-05T11:00:00Z,26.5255,-82.0032,1.16,11113222 
SCCF RECON,ioos:station:SCCF:13:1,2019-07-05T12:00:00Z,26.5255,-82.0032,1.14,11113222 
SCCF RECON,ioos:station:SCCF:13:1,2019-07-05T13:00:00Z,26.5255,-82.0032,1.01,11113222 
SCCF RECON,ioos:station:SCCF:13:1,2019-07-05T14:00:00Z,26.5255,-82.0032,0.89,11113222 
SCCF RECON,ioos:station:SCCF:13:1,2019-07-05T15:00:00Z,26.5255,-82.0032,0.94,11113222 
SCCF RECON,ioos:station:SCCF:13:1,2019-07-05T16:00:00Z,26.5255,-82.0032,1.13,11113222 
SCCF RECON,ioos:station:SCCF:13:1,2019-07-05T17:00:00Z,26.5255,-82.0032,1.33,11113222 
SCCF RECON,ioos:station:SCCF:13:1,2019-07-05T18:00:00Z,26.5255,-82.0032,1.48,11113222 
SCCF RECON,ioos:station:SCCF:13:1,2019-07-05T19:00:00Z,26.5255,-82.0032,1.63,11113222 
SCCF RECON,ioos:station:SCCF:13:1,2019-07-05T20:00:00Z,26.5255,-82.0032,1.42,11113222 
SCCF RECON,ioos:station:SCCF:13:1,2019-07-05T21:00:00Z,26.5255,-82.0032,1.44,11113222 
SCCF RECON,ioos:station:SCCF:13:1,2019-07-05T22:00:00Z,26.5255,-82.0032,1.12,11113222 
SCCF RECON,ioos:station:SCCF:13:1,2019-07-05T23:00:00Z,26.5255,-82.0032,0.98,11113222 
SCCF RECON,ioos:station:SCCF:13:1,2019-07-06T04:00:00Z,26.5255,-82.0032,1.42,11113222 
SCCF RECON,ioos:station:SCCF:13:1,2019-07-06T05:00:00Z,26.5255,-82.0032,1.11,11113222 
SCCF RECON,ioos:station:SCCF:13:1,2019-07-06T06:00:00Z,26.5255,-82.0032,1.03,11113222 
SCCF RECON,ioos:station:SCCF:13:1,2019-07-06T07:00:00Z,26.5255,-82.0032,1.24,11113222 
SCCF RECON,ioos:station:SCCF:13:1,2019-07-06T08:00:00Z,26.5255,-82.0032,1.35,11113222 
SCCF RECON,ioos:station:SCCF:13:1,2019-07-06T09:00:00Z,26.5255,-82.0032,1.65,11113222 
SCCF RECON,ioos:station:SCCF:13:1,2019-07-06T10:00:00Z,26.5255,-82.0032,1.66,11113222 
SCCF RECON,ioos:station:SCCF:13:1,2019-07-06T11:00:00Z,26.5255,-82.0032,1.56,11113222 
SCCF RECON,ioos:station:SCCF:13:1,2019-07-06T12:00:00Z,26.5255,-82.0032,1.3,11113222 
SCCF RECON,ioos:station:SCCF:13:1,2019-07-06T13:00:00Z,26.5255,-82.0032,1.24,11113222 
SCCF RECON,ioos:station:SCCF:13:1,2019-07-06T14:00:00Z,26.5255,-82.0032,1.09,11113222 
SCCF RECON,ioos:station:SCCF:13:1,2019-07-06T15:00:00Z,26.5255,-82.0032,0.96,11113222 
SCCF RECON,ioos:station:SCCF:13:1,2019-07-06T16:00:00Z,26.5255,-82.0032,0.97,11113222 
SCCF RECON,ioos:station:SCCF:13:1,2019-07-06T17:00:00Z,26.5255,-82.0032,1.02,11113222 
SCCF RECON,ioos:station:SCCF:13:1,2019-07-06T18:00:00Z,26.5255,-82.0032,1.44,11113222 
SCCF RECON,ioos:station:SCCF:13:1,2019-07-06T19:00:00Z,26.5255,-82.0032,1.4,11113222 
SCCF RECON,ioos:station:SCCF:13:1,2019-07-06T20:00:00Z,26.5255,-82.0032,1.5,11113222 
SCCF RECON,ioos:station:SCCF:13:1,2019-07-06T21:00:00Z,26.5255,-82.0032,1.34,11113222 
SCCF RECON,ioos:station:SCCF:13:1,2019-07-06T22:00:00Z,26.5255,-82.0032,1.21,11113222 
SCCF RECON,ioos:station:SCCF:13:1,2019-07-06T23:00:00Z,26.5255,-82.0032,1.49,11113222 
SCCF RECON,ioos:station:SCCF:13:1,2019-07-07T04:00:00Z,26.5255,-82.0032,1.38,11113222 
SCCF RECON,ioos:station:SCCF:13:1,2019-07-07T05:00:00Z,26.5255,-82.0032,1.16,11113222 
SCCF RECON,ioos:station:SCCF:13:1,2019-07-07T06:00:00Z,26.5255,-82.0032,0.95,11113222 
SCCF RECON,ioos:station:SCCF:13:1,2019-07-07T07:00:00Z,26.5255,-82.0032,0.87,11113222 
SCCF RECON,ioos:station:SCCF:13:1,2019-07-07T08:00:00Z,26.5255,-82.0032,1.14,11113222 
SCCF RECON,ioos:station:SCCF:13:1,2019-07-07T09:00:00Z,26.5255,-82.0032,1.43,11113222 
SCCF RECON,ioos:station:SCCF:13:1,2019-07-07T10:00:00Z,26.5255,-82.0032,1.79,11113222 
SCCF RECON,ioos:station:SCCF:13:1,2019-07-07T11:00:00Z,26.5255,-82.0032,1.79,11113222 
SCCF RECON,ioos:station:SCCF:13:1,2019-07-07T12:00:00Z,26.5255,-82.0032,1.41,11113222 
SCCF RECON,ioos:station:SCCF:13:1,2019-07-07T13:00:00Z,26.5255,-82.0032,1.29,11113222 
SCCF RECON,ioos:station:SCCF:13:1,2019-07-07T14:00:00Z,26.5255,-82.0032,1.02,11113222 
SCCF RECON,ioos:station:SCCF:13:1,2019-07-07T15:00:00Z,26.5255,-82.0032,0.92,11113222 
SCCF RECON,ioos:station:SCCF:13:1,2019-07-07T16:00:00Z,26.5255,-82.0032,0.99,11113222 
SCCF RECON,ioos:station:SCCF:13:1,2019-07-07T17:00:00Z,26.5255,-82.0032,0.9,11113222 
SCCF RECON,ioos:station:SCCF:13:1,2019-07-07T18:00:00Z,26.5255,-82.0032,0.85,11113222 
SCCF RECON,ioos:station:SCCF:13:1,2019-07-07T19:00:00Z,26.5255,-82.0032,1.24,11113222 
SCCF RECON,ioos:station:SCCF:13:1,2019-07-07T20:00:00Z,26.5255,-82.0032,1.3,11113222 
SCCF RECON,ioos:station:SCCF:13:1,2019-07-07T21:00:00Z,26.5255,-82.0032,1.42,11113222 
SCCF RECON,ioos:station:SCCF:13:1,2019-07-07T22:00:00Z,26.5255,-82.0032,1.08,11113222 
SCCF RECON,ioos:station:SCCF:13:1,2019-07-07T23:00:00Z,26.5255,-82.0032,1.11,11113222 
SCCF RECON,ioos:station:SCCF:13:1,2019-07-08T04:00:00Z,26.5255,-82.0032,1.16,11113222 
SCCF RECON,ioos:station:SCCF:13:1,2019-07-08T05:00:00Z,26.5255,-82.0032,1.12,11113222 
SCCF RECON,ioos:station:SCCF:13:1,2019-07-08T06:00:00Z,26.5255,-82.0032,1.03,11113222 
SCCF RECON,ioos:station:SCCF:13:1,2019-07-08T07:00:00Z,26.5255,-82.0032,0.93,11113222 
SCCF RECON,ioos:station:SCCF:13:1,2019-07-08T08:00:00Z,26.5255,-82.0032,1.07,11113222 
SCCF RECON,ioos:station:SCCF:13:1,2019-07-08T09:00:00Z,26.5255,-82.0032,1.08,11113222 
SCCF RECON,ioos:station:SCCF:13:1,2019-07-08T10:00:00Z,26.5255,-82.0032,1.41,11113222 
SCCF RECON,ioos:station:SCCF:13:1,2019-07-08T11:00:00Z,26.5255,-82.0032,1.61,11113222 
SCCF RECON,ioos:station:SCCF:13:1,2019-07-08T12:00:00Z,26.5255,-82.0032,1.31,11113222 
SCCF RECON,ioos:station:SCCF:13:1,2019-07-08T13:00:00Z,26.5255,-82.0032,1.67,11113222 
SCCF RECON,ioos:station:SCCF:13:1,2019-07-08T14:00:00Z,26.5255,-82.0032,1.31,11113222 
SCCF RECON,ioos:station:SCCF:13:1,2019-07-08T15:00:00Z,26.5255,-82.0032,0.96,11113222 
SCCF RECON,ioos:station:SCCF:13:1,2019-07-08T16:00:00Z,26.5255,-82.0032,0.91,11113222 
SCCF RECON,ioos:station:SCCF:13:1,2019-07-08T17:00:00Z,26.5255,-82.0032,0.86,11113222 
SCCF RECON,ioos:station:SCCF:13:1,2019-07-08T18:00:00Z,26.5255,-82.0032,0.84,11113222 
SCCF RECON,ioos:station:SCCF:13:1,2019-07-08T19:00:00Z,26.5255,-82.0032,0.71,11113222 
SCCF RECON,ioos:station:SCCF:13:1,2019-07-08T20:00:00Z,26.5255,-82.0032,1.02,11113222 
SCCF RECON,ioos:station:SCCF:13:1,2019-07-08T21:00:00Z,26.5255,-82.0032,1.25,11113222 
SCCF RECON,ioos:station:SCCF:13:1,2019-07-08T22:00:00Z,26.5255,-82.0032,1.04,11113222 
SCCF RECON,ioos:station:SCCF:13:1,2019-07-08T23:00:00Z,26.5255,-82.0032,1.01,11113222 
SCCF RECON,ioos:station:SCCF:13:1,2019-07-09T04:00:00Z,26.5255,-82.0032,1.08,11113222 
SCCF RECON,ioos:station:SCCF:13:1,2019-07-09T05:00:00Z,26.5255,-82.0032,1.04,11113222 
SCCF RECON,ioos:station:SCCF:13:1,2019-07-09T06:00:00Z,26.5255,-82.0032,1.03,11113222 
SCCF RECON,ioos:station:SCCF:13:1,2019-07-09T07:00:00Z,26.5255,-82.0032,0.89,11113222 
SCCF RECON,ioos:station:SCCF:13:1,2019-07-09T08:00:00Z,26.5255,-82.0032,0.93,11113222 
SCCF RECON,ioos:station:SCCF:13:1,2019-07-09T09:00:00Z,26.5255,-82.0032,1.16,11113222 
SCCF RECON,ioos:station:SCCF:13:1,2019-07-09T10:00:00Z,26.5255,-82.0032,1.31,11113222 
SCCF RECON,ioos:station:SCCF:13:1,2019-07-09T11:00:00Z,26.5255,-82.0032,1.73,11113222 
SCCF RECON,ioos:station:SCCF:13:1,2019-07-09T12:00:00Z,26.5255,-82.0032,1.7,11113222 
SCCF RECON,ioos:station:SCCF:13:1,2019-07-09T13:00:00Z,26.5255,-82.0032,1.31,11113222 
SCCF RECON,ioos:station:SCCF:13:1,2019-07-09T14:00:00Z,26.5255,-82.0032,1.06,11113222 
SCCF RECON,ioos:station:SCCF:13:1,2019-07-09T15:00:00Z,26.5255,-82.0032,0.9,11113222 
SCCF RECON,ioos:station:SCCF:13:1,2019-07-09T16:00:00Z,26.5255,-82.0032,1.05,11113222 
SCCF RECON,ioos:station:SCCF:13:1,2019-07-09T17:00:00Z,26.5255,-82.0032,1.1,11113222 
SCCF RECON,ioos:station:SCCF:13:1,2019-07-09T18:00:00Z,26.5255,-82.0032,1.0,11113222 
SCCF RECON,ioos:station:SCCF:13:1,2019-07-09T19:00:00Z,26.5255,-82.0032,0.92,11113222 
SCCF RECON,ioos:station:SCCF:13:1,2019-07-09T20:00:00Z,26.5255,-82.0032,0.84,11113222 
SCCF RECON,ioos:station:SCCF:13:1,2019-07-09T21:00:00Z,26.5255,-82.0032,1.87,11113222 
SCCF RECON,ioos:station:SCCF:13:1,2019-07-09T22:00:00Z,26.5255,-82.0032,0.8,11113222 
SCCF RECON,ioos:station:SCCF:13:1,2019-07-09T23:00:00Z,26.5255,-82.0032,1.22,11113222 
SCCF RECON,ioos:station:SCCF:13:1,2019-07-10T04:00:00Z,26.5255,-82.0032,1.04,11113222 
SCCF RECON,ioos:station:SCCF:13:1,2019-07-10T05:00:00Z,26.5255,-82.0032,1.09,11113222 
SCCF RECON,ioos:station:SCCF:13:1,2019-07-10T06:00:00Z,26.5255,-82.0032,1.11,11113222 
SCCF RECON,ioos:station:SCCF:13:1,2019-07-10T07:00:00Z,26.5255,-82.0032,1.03,11113222 
SCCF RECON,ioos:station:SCCF:13:1,2019-07-10T08:00:00Z,26.5255,-82.0032,1.08,11113222 
SCCF RECON,ioos:station:SCCF:13:1,2019-07-10T09:00:00Z,26.5255,-82.0032,0.94,11113222 
SCCF RECON,ioos:station:SCCF:13:1,2019-07-10T10:00:00Z,26.5255,-82.0032,1.16,11113222 
SCCF RECON,ioos:station:SCCF:13:1,2019-07-10T11:00:00Z,26.5255,-82.0032,1.47,11113222 
SCCF RECON,ioos:station:SCCF:13:1,2019-07-10T12:00:00Z,26.5255,-82.0032,1.54,11113222 
SCCF RECON,ioos:station:SCCF:13:1,2019-07-10T13:00:00Z,26.5255,-82.0032,2.08,11113222 
SCCF RECON,ioos:station:SCCF:13:1,2019-07-10T14:00:00Z,26.5255,-82.0032,1.68,11113222 
SCCF RECON,ioos:station:SCCF:13:1,2019-07-10T15:00:00Z,26.5255,-82.0032,1.0,11113222 
SCCF RECON,ioos:station:SCCF:13:1,2019-07-10T16:00:00Z,26.5255,-82.0032,0.98,11113222 
SCCF RECON,ioos:station:SCCF:13:1,2019-07-10T17:00:00Z,26.5255,-82.0032,1.04,11113222 
SCCF RECON,ioos:station:SCCF:13:1,2019-07-10T18:00:00Z,26.5255,-82.0032,1.03,11113222 
SCCF RECON,ioos:station:SCCF:13:1,2019-07-10T19:00:00Z,26.5255,-82.0032,1.01,11113222 
SCCF RECON,ioos:station:SCCF:13:1,2019-07-10T20:00:00Z,26.5255,-82.0032,1.03,11113222 
SCCF RECON,ioos:station:SCCF:13:1,2019-07-10T21:00:00Z,26.5255,-82.0032,1.04,11113222 
SCCF RECON,ioos:station:SCCF:13:1,2019-07-10T22:00:00Z,26.5255,-82.0032,0.98,11113222 
SCCF RECON,ioos:station:SCCF:13:1,2019-07-10T23:00:00Z,26.5255,-82.0032,0.86,11113222 
SCCF RECON,ioos:station:SCCF:13:1,2019-07-11T04:00:00Z,26.5255,-82.0032,1.11,11113222 
SCCF RECON,ioos:station:SCCF:13:1,2019-07-11T05:00:00Z,26.5255,-82.0032,1.6,11113222 
SCCF RECON,ioos:station:SCCF:13:1,2019-07-11T06:00:00Z,26.5255,-82.0032,0.96,11113222 
SCCF RECON,ioos:station:SCCF:13:1,2019-07-11T07:00:00Z,26.5255,-82.0032,1.19,11113222 
SCCF RECON,ioos:station:SCCF:13:1,2019-07-11T08:00:00Z,26.5255,-82.0032,0.98,11113222 
SCCF RECON,ioos:station:SCCF:13:1,2019-07-11T09:00:00Z,26.5255,-82.0032,1.06,11113222 
SCCF RECON,ioos:station:SCCF:13:1,2019-07-11T10:00:00Z,26.5255,-82.0032,1.12,11113222 
SCCF RECON,ioos:station:SCCF:13:1,2019-07-11T11:00:00Z,26.5255,-82.0032,1.74,11113222 
SCCF RECON,ioos:station:SCCF:13:1,2019-07-11T12:00:00Z,26.5255,-82.0032,1.6,11113222 
SCCF RECON,ioos:station:SCCF:13:1,2019-07-11T13:00:00Z,26.5255,-82.0032,1.75,11113222 
SCCF RECON,ioos:station:SCCF:13:1,2019-07-11T14:00:00Z,26.5255,-82.0032,1.8,11113222 
SCCF RECON,ioos:station:SCCF:13:1,2019-07-11T15:00:00Z,26.5255,-82.0032,1.88,11113222 
SCCF RECON,ioos:station:SCCF:13:1,2019-07-11T16:00:00Z,26.5255,-82.0032,1.5,11113222 
SCCF RECON,ioos:station:SCCF:13:1,2019-07-11T17:00:00Z,26.5255,-82.0032,1.43,11113222 
SCCF RECON,ioos:station:SCCF:13:1,2019-07-11T18:00:00Z,26.5255,-82.0032,1.13,11113222 
SCCF RECON,ioos:station:SCCF:13:1,2019-07-11T19:00:00Z,26.5255,-82.0032,1.21,11113222 
SCCF RECON,ioos:station:SCCF:13:1,2019-07-11T20:00:00Z,26.5255,-82.0032,1.31,11113222 
SCCF RECON,ioos:station:SCCF:13:1,2019-07-11T21:00:00Z,26.5255,-82.0032,1.22,11113222 
SCCF RECON,ioos:station:SCCF:13:1,2019-07-11T22:00:00Z,26.5255,-82.0032,1.2,11113222 
SCCF RECON,ioos:station:SCCF:13:1,2019-07-11T23:00:00Z,26.5255,-82.0032,1.11,11113222 
SCCF RECON,ioos:station:SCCF:13:1,2019-07-12T04:00:00Z,26.5255,-82.0032,1.37,11113222 
SCCF RECON,ioos:station:SCCF:13:1,2019-07-12T05:00:00Z,26.5255,-82.0032,1.83,11113222 
SCCF RECON,ioos:station:SCCF:13:1,2019-07-12T06:00:00Z,26.5255,-82.0032,1.96,11113222 
SCCF RECON,ioos:station:SCCF:13:1,2019-07-12T07:00:00Z,26.5255,-82.0032,1.82,11113222 
SCCF RECON,ioos:station:SCCF:13:1,2019-07-12T08:00:00Z,26.5255,-82.0032,1.4,11113222 
SCCF RECON,ioos:station:SCCF:13:1,2019-07-12T09:00:00Z,26.5255,-82.0032,1.24,11113222 
SCCF RECON,ioos:station:SCCF:13:1,2019-07-12T10:00:00Z,26.5255,-82.0032,1.16,11113222 
SCCF RECON,ioos:station:SCCF:13:1,2019-07-12T11:00:00Z,26.5255,-82.0032,1.17,11113222 
SCCF RECON,ioos:station:SCCF:13:1,2019-07-12T12:00:00Z,26.5255,-82.0032,1.72,11113222 
SCCF RECON,ioos:station:SCCF:13:1,2019-07-12T13:00:00Z,26.5255,-82.0032,1.75,11113222 
SCCF RECON,ioos:station:SCCF:13:1,2019-07-12T14:00:00Z,26.5255,-82.0032,1.6,11113222 
SCCF RECON,ioos:station:SCCF:13:1,2019-07-12T15:00:00Z,26.5255,-82.0032,1.86,11113222 
SCCF RECON,ioos:station:SCCF:13:1,2019-07-12T16:00:00Z,26.5255,-82.0032,1.69,11113222 
SCCF RECON,ioos:station:SCCF:13:1,2019-07-12T17:00:00Z,26.5255,-82.0032,1.34,11113222 
SCCF RECON,ioos:station:SCCF:13:1,2019-07-12T18:00:00Z,26.5255,-82.0032,1.27,11113222 
SCCF RECON,ioos:station:SCCF:13:1,2019-07-12T19:00:00Z,26.5255,-82.0032,1.49,11113222 
SCCF RECON,ioos:station:SCCF:13:1,2019-07-12T20:00:00Z,26.5255,-82.0032,1.37,11113222 
SCCF RECON,ioos:station:SCCF:13:1,2019-07-12T21:00:00Z,26.5255,-82.0032,1.46,11113222 
SCCF RECON,ioos:station:SCCF:13:1,2019-07-12T22:00:00Z,26.5255,-82.0032,1.39,11113222 
SCCF RECON,ioos:station:SCCF:13:1,2019-07-12T23:00:00Z,26.5255,-82.0032,1.28,11113222 
SCCF RECON,ioos:station:SCCF:13:1,2019-07-13T04:00:00Z,26.5255,-82.0032,1.09,11113222 
SCCF RECON,ioos:station:SCCF:13:1,2019-07-13T05:00:00Z,26.5255,-82.0032,1.22,11113222 
SCCF RECON,ioos:station:SCCF:13:1,2019-07-13T06:00:00Z,26.5255,-82.0032,1.56,11113222 
SCCF RECON,ioos:station:SCCF:13:1,2019-07-13T07:00:00Z,26.5255,-82.0032,2.0,11113222 
SCCF RECON,ioos:station:SCCF:13:1,2019-07-13T08:00:00Z,26.5255,-82.0032,1.89,11113222 
SCCF RECON,ioos:station:SCCF:13:1,2019-07-13T09:00:00Z,26.5255,-82.0032,1.26,11113222 
SCCF RECON,ioos:station:SCCF:13:1,2019-07-13T10:00:00Z,26.5255,-82.0032,1.03,11113222 
SCCF RECON,ioos:station:SCCF:13:1,2019-07-13T11:00:00Z,26.5255,-82.0032,1.21,11113222 
SCCF RECON,ioos:station:SCCF:13:1,2019-07-13T12:00:00Z,26.5255,-82.0032,1.24,11113222 
SCCF RECON,ioos:station:SCCF:13:1,2019-07-13T13:00:00Z,26.5255,-82.0032,1.53,11113222 
SCCF RECON,ioos:station:SCCF:13:1,2019-07-13T14:00:00Z,26.5255,-82.0032,1.69,11113222 
SCCF RECON,ioos:station:SCCF:13:1,2019-07-13T15:00:00Z,26.5255,-82.0032,1.83,11113222 
SCCF RECON,ioos:station:SCCF:13:1,2019-07-13T16:00:00Z,26.5255,-82.0032,1.93,11113222 
SCCF RECON,ioos:station:SCCF:13:1,2019-07-13T17:00:00Z,26.5255,-82.0032,1.52,11113222 
SCCF RECON,ioos:station:SCCF:13:1,2019-07-13T18:00:00Z,26.5255,-82.0032,1.49,11113222 
SCCF RECON,ioos:station:SCCF:13:1,2019-07-13T19:00:00Z,26.5255,-82.0032,1.19,11113222 
SCCF RECON,ioos:station:SCCF:13:1,2019-07-13T20:00:00Z,26.5255,-82.0032,1.76,11113222 
SCCF RECON,ioos:station:SCCF:13:1,2019-07-13T21:00:00Z,26.5255,-82.0032,1.61,11113222 
SCCF RECON,ioos:station:SCCF:13:1,2019-07-15T15:00:00Z,26.5255,-82.0032,1.71,11113222 
SCCF RECON,ioos:station:SCCF:13:1,2019-07-15T16:00:00Z,26.5255,-82.0032,1.97,11113222 
SCCF RECON,ioos:station:SCCF:13:1,2019-07-15T17:00:00Z,26.5255,-82.0032,1.84,11113222 
SCCF RECON,ioos:station:SCCF:13:1,2019-07-15T18:00:00Z,26.5255,-82.0032,1.77,11113222 
SCCF RECON,ioos:station:SCCF:13:1,2019-07-15T19:00:00Z,26.5255,-82.0032,1.92,11113222 
SCCF RECON,ioos:station:SCCF:13:1,2019-07-15T20:00:00Z,26.5255,-82.0032,1.38,11113222 
SCCF RECON,ioos:station:SCCF:13:1,2019-07-15T21:00:00Z,26.5255,-82.0032,1.69,11113222 
SCCF RECON,ioos:station:SCCF:13:1,2019-07-15T22:00:00Z,26.5255,-82.0032,1.78,11113222 
SCCF RECON,ioos:station:SCCF:13:1,2019-07-15T23:00:00Z,26.5255,-82.0032,2.09,11113222 
SCCF RECON,ioos:station:SCCF:13:1,2019-07-16T04:00:00Z,26.5255,-82.0032,1.71,11113222 
SCCF RECON,ioos:station:SCCF:13:1,2019-07-16T05:00:00Z,26.5255,-82.0032,1.78,11113222 
SCCF RECON,ioos:station:SCCF:13:1,2019-07-16T06:00:00Z,26.5255,-82.0032,2.11,11113222 
SCCF RECON,ioos:station:SCCF:13:1,2019-07-16T07:00:00Z,26.5255,-82.0032,1.93,11113222 
SCCF RECON,ioos:station:SCCF:13:1,2019-07-16T08:00:00Z,26.5255,-82.0032,1.55,11113222 
SCCF RECON,ioos:station:SCCF:13:1,2019-07-16T09:00:00Z,26.5255,-82.0032,1.82,11113222 
SCCF RECON,ioos:station:SCCF:13:1,2019-07-16T10:00:00Z,26.5255,-82.0032,1.49,11113222 
SCCF RECON,ioos:station:SCCF:13:1,2019-07-16T11:00:00Z,26.5255,-82.0032,1.41,11113222 
SCCF RECON,ioos:station:SCCF:13:1,2019-07-16T12:00:00Z,26.5255,-82.0032,1.24,11113222 
SCCF RECON,ioos:station:SCCF:13:1,2019-07-16T13:00:00Z,26.5255,-82.0032,1.28,11113222 
SCCF RECON,ioos:station:SCCF:13:1,2019-07-16T14:00:00Z,26.5255,-82.0032,1.25,11113222 
SCCF RECON,ioos:station:SCCF:13:1,2019-07-16T15:00:00Z,26.5255,-82.0032,1.76,11113222 
SCCF RECON,ioos:station:SCCF:13:1,2019-07-16T16:00:00Z,26.5255,-82.0032,1.85,11113222 
SCCF RECON,ioos:station:SCCF:13:1,2019-07-16T17:00:00Z,26.5255,-82.0032,1.95,11113222 
SCCF RECON,ioos:station:SCCF:13:1,2019-07-16T18:00:00Z,26.5255,-82.0032,1.9,11113222 
SCCF RECON,ioos:station:SCCF:13:1,2019-07-16T19:00:00Z,26.5255,-82.0032,1.66,11113222 
SCCF RECON,ioos:station:SCCF:13:1,2019-07-16T20:00:00Z,26.5255,-82.0032,1.66,11113222 
SCCF RECON,ioos:station:SCCF:13:1,2019-07-16T21:00:00Z,26.5255,-82.0032,1.54,11113222 
SCCF RECON,ioos:station:SCCF:13:1,2019-07-16T22:00:00Z,26.5255,-82.0032,1.54,11113222 
SCCF RECON,ioos:station:SCCF:13:1,2019-07-16T23:00:00Z,26.5255,-82.0032,2.0,11113222 
SCCF RECON,ioos:station:SCCF:13:1,2019-07-17T04:00:00Z,26.5255,-82.0032,1.78,11113222 
SCCF RECON,ioos:station:SCCF:13:1,2019-07-17T05:00:00Z,26.5255,-82.0032,2.31,11113222 
SCCF RECON,ioos:station:SCCF:13:1,2019-07-17T06:00:00Z,26.5255,-82.0032,1.99,11113222 
SCCF RECON,ioos:station:SCCF:13:1,2019-07-17T07:00:00Z,26.5255,-82.0032,2.25,11113222 
SCCF RECON,ioos:station:SCCF:13:1,2019-07-17T08:00:00Z,26.5255,-82.0032,1.77,11113222 
SCCF RECON,ioos:station:SCCF:13:1,2019-07-17T09:00:00Z,26.5255,-82.0032,1.58,11113222 
SCCF RECON,ioos:station:SCCF:13:1,2019-07-17T10:00:00Z,26.5255,-82.0032,1.69,11113222 
SCCF RECON,ioos:station:SCCF:13:1,2019-07-17T11:00:00Z,26.5255,-82.0032,1.38,11113222 
SCCF RECON,ioos:station:SCCF:13:1,2019-07-17T12:00:00Z,26.5255,-82.0032,1.34,11113222 
SCCF RECON,ioos:station:SCCF:13:1,2019-07-17T13:00:00Z,26.5255,-82.0032,1.46,11113222 
SCCF RECON,ioos:station:SCCF:13:1,2019-07-17T14:00:00Z,26.5255,-82.0032,1.29,11113222 
SCCF RECON,ioos:station:SCCF:13:1,2019-07-17T15:00:00Z,26.5255,-82.0032,1.71,11113222 
SCCF RECON,ioos:station:SCCF:13:1,2019-07-17T16:00:00Z,26.5255,-82.0032,1.54,11113222 
SCCF RECON,ioos:station:SCCF:13:1,2019-07-17T17:00:00Z,26.5255,-82.0032,1.89,11113222 
SCCF RECON,ioos:station:SCCF:13:1,2019-07-17T18:00:00Z,26.5255,-82.0032,1.91,11113222 
SCCF RECON,ioos:station:SCCF:13:1,2019-07-18T17:00:00Z,26.5255,-82.0032,1.64,11113222 
SCCF RECON,ioos:station:SCCF:13:1,2019-07-18T18:00:00Z,26.5255,-82.0032,1.86,11113222 
SCCF RECON,ioos:station:SCCF:13:1,2019-07-18T19:00:00Z,26.5255,-82.0032,2.04,11113222 
SCCF RECON,ioos:station:SCCF:13:1,2019-07-18T20:00:00Z,26.5255,-82.0032,1.91,11113222 
SCCF RECON,ioos:station:SCCF:13:1,2019-07-18T21:00:00Z,26.5255,-82.0032,1.76,11113222 